Home   Weather   Brazzaville   Past weeks
Flag for Congo

Past Weather in Brazzaville, Congo — Yesterday and Last 2 Weeks

Now
75 °F

Clear.


Feels Like: 76 °F
Forecast: 83 / 69 °F
Wind: 8 mph from West

Location: Brazzaville / Maya-Maya

Current Time: Jul 18, 2019 at 4:13:08 am

Latest Report: Jul 18, 2019 at 1:00 am


Visibility: 4 mi

Pressure: 29.98 "Hg

Humidity: 78%

Dew Point: 68 °F

Location of BrazzavilleLocation

Past Weather in Brazzaville — Graph

°F

Brazzaville Temperature Yesterday

Maximum temperature yesterday: 90 °F (at 3:00 pm)
Minimum temperature yesterday: 70 °F (at 3:00 am)
Average temperature yesterday: 79 °F

High & Low Weather Summary for the Past Weeks

 TemperatureHumidityPressure
High90 °F (Jul 14, 2:00 pm)94% (Jul 3, 1:00 am)30.07 "Hg (Jul 3, 1:00 am)
Low68 °F (Jul 3, 1:00 am)49% (Jul 7, 4:00 pm)29.80 "Hg (Jul 15, 4:00 pm)
Average76 °F75%29.96 "Hg
* Reported Jul 3 1:00 am — Jul 18 1:00 am, Brazzaville. Weather by CustomWeather, © 2019

Note: Actual official high and low records may vary slightly from our data, if they occured in-between our weather recording intervals... More about our weather records

Advertising

Brazzaville Weather History for the Previous 24 Hours

Scroll right to see more
 ConditionsComfort  
Time TempWeatherWind HumidityBarometerVisibility
1:00 am
Thu, Jul 18
75 °FClear.8 mph78%29.98 "Hg4 mi
12:00 am77 °FClear.7 mph79%29.98 "Hg4 mi
10:00 pm
Wed, Jul 17
79 °FPassing clouds.7 mph74%29.95 "Hg4 mi
9:00 pm81 °FPassing clouds.7 mph70%29.95 "Hg4 mi
8:00 pm81 °FHaze.5 mph70%29.92 "Hg3 mi
7:00 pm82 °FHaze.2 mph70%29.89 "Hg3 mi
6:00 pm84 °FClear.6 mph62%29.86 "Hg4 mi
5:00 pm88 °FPassing clouds.6 mph52%29.86 "Hg4 mi
4:00 pm88 °FClear.6 mph52%29.86 "Hg4 mi
3:00 pm90 °FClear.7 mph49%29.89 "Hg4 mi
2:00 pm88 °FClear.5 mph55%29.92 "Hg4 mi
1:00 pm88 °FClear.2 mph52%29.95 "Hg4 mi
12:00 pm84 °FClear.3 mph58%29.98 "Hg4 mi
11:00 am81 °FHaze.3 mph66%30.01 "Hg2 mi
10:00 am79 °FHaze.5 mph70%30.04 "Hg2 mi
9:00 am75 °FFog.3 mph78%30.04 "Hg2 mi
8:00 am72 °FFog.3 mph88%30.04 "Hg2 mi
7:00 am70 °FFog.No wind94%30.01 "Hg2 mi
6:00 am70 °FPassing clouds.1 mph94%30.01 "Hg4 mi
4:00 am70 °FPassing clouds.3 mph94%29.98 "Hg4 mi
Weather by CustomWeather, © 2019

See weather overview